Location: Allos
(44.2333°N, 6.6333°E)
Time: 09:43:37
(UTC+00:00)

ARGOS - Pass Details

Date: 01 December 2020
Orbit: 820 x 835 km, 98.4° (Epoch: 25 January)

Event Time Altitude Azimuth Distance (km) Brightness Sun altitude
Exits shadow 18:08:30 25° 17° (NNE) 1,608 4.4 -23.1°
Drops below altitude 10° 18:11:00 10° 0° (N) 2,442 5.5 -23.6°
Sets 18:13:28 0° 354° (N) 3,378 6.3 -24.0°
